Regional Weather Roundup
Issued by NWS

Home | Current Version | Previous Version | Text Only | Print | Product List | Glossary Off
Versions: 1 2 3 4 5 6 7 8 9 10 11 12 13 14 15 16 17 18 19 20 21 22 23 24 25 26 27 28 29 30 31 32 33 34 35 36 37 38 39 40 41 42 43 44 45 46 47 48 49 50

971
ASUS45 KBOU 182307
RWRCO

WEATHER ROUNDUP FOR COLORADO
NATIONAL WEATHER SERVICE DENVER/BOULDER CO
400 PM MST WED JAN 18 2017

NOTE: "FAIR" INDICATES FEW OR NO CLOUDS BELOW 12000 FEET WITH NO
SIGNIFICANT WEATHER AND/OR OBSTRUCTIONS TO VISIBILITY.

COZ001>005-013-030-031-190000-
...NORTHWEST COLORADO...

CITY           SKY/WX    TMP DP  RH WIND       PRES   REMARKS
CRAIG          FAIR      18  12  77 SW5       30.00F WCI  11
HAYDEN         FAIR      21  12  68 CALM      29.99S
MEEKER         FAIR      31  21  66 CALM      29.97F
MOUNT WERNER   NOT AVBL
STEAMBOAT SPGS FAIR      25  14  61 CALM      29.98F
WALDEN           N/A    N/A N/A N/A CALM      29.97F
$$

COZ006>008-011-190000-
...WEST CENTRAL VALLEYS...

CITY           SKY/WX    TMP DP  RH WIND       PRES   REMARKS
GRAND JUNCTION FAIR      43  31  62 W8        30.00F
MONTROSE       FAIR      43  27  53 NW8       30.00F
EAGLE          SUNNY     34  19  55 CALM      30.01F
RIFLE          FAIR      42  25  50 W9        29.98F
DELTA          FAIR      48  27  43 CALM      29.99F
NUCLA          PTSUNNY   43  27  52 S3        30.03F
$$

COZ017>023-064>068-190000-
...SOUTHWEST COLORADO...

CITY           SKY/WX    TMP DP  RH WIND       PRES   REMARKS
DURANGO        CLOUDY    39  27  62 SW7       29.99S
CORTEZ         FAIR      41  29  62 NW8       30.02S
PAGOSA SPRINGS CLOUDY    34  26  70 SW5       30.00R WCI  30
TELLURIDE      FAIR      32  23  68 W12       30.00F WCI  23
WOLF CREEK PAS CLOUDY    18  18 100 SW8       30.03F WCI   7
$$

COZ009-010-012-014-032>034-037-058>063-190000-
...CENTRAL COLORADO...

CITY           SKY/WX    TMP DP  RH WIND       PRES   REMARKS
ASPEN          FAIR      32  14  47 NW5       29.96F WCI  27
BUENA VISTA    FAIR      25  12  57 W5        29.89S WCI  19
COPPER MTN     NOT AVBL
BERTHOUD PASS  NOT AVBL
COTTONWOOD PAS FAIR      37  12  35 CALM      29.92S
GUNNISON       FAIR      28  16  60 E6        30.02S WCI  22
KREMMLING      FAIR      30  18  59 CALM      30.02S
LEADVILLE      FAIR      33  10  38 N12       29.92S WCI  24
MONARCH PASS   FAIR      18  12  79 MISG      30.07S
SALIDA         FAIR      40  15  35 SW9       29.95F
SUNLIGHT       FAIR      23  19  86 SW8       30.02S WCI  14
WILKERSON PASS FAIR      34  -6  18 SW6       29.96F WCI  29
$$

COZ069>075-190000-
...SAN LUIS VALLEY/SANGRE DE CRISTO MOUNTAINS...

CITY           SKY/WX    TMP DP  RH WIND       PRES   REMARKS
ALAMOSA        CLOUDY    26  23  88 S8        29.98F WCI  18
LA VETA PASS   CLOUDY    21  18  86 NE24      29.92F FOG     WCI   4
SAGUACHE       FAIR      32  23  69 S6        29.98S WCI  26
$$

COZ035-036-038>040-190000-
...NORTHERN COLORADO FRONT RANGE...

CITY           SKY/WX    TMP DP  RH WIND       PRES   REMARKS
DENVER INTL AP FAIR      51  15  23 CALM      29.77F
DMNS CITY PARK   N/A     54  12  19 NE3G14    29.77S
AURORA         PTCLDY    49  15  25 E3        29.78F
FRONT RANGE AP NOT AVBL
ERIE MUNI ARPT FAIR      52  10  18 CALM      29.77F
BOULDER MUN AP FAIR      52  16  24 CALM      29.76F
CENTENNIAL     FAIR      51   3  14 CALM      29.77F
BROOMFIELD     PTCLDY    54   9  16 CALM      29.78F
FORT COLLINS   FAIR      50  18  27 S3        29.77F
LONGMONT       FAIR      51  22  32 CALM      29.79S
$$

COZ041-046-047-076>085-087-088-190000-
...PIKES PEAK/PALMER DIVIDE AND SOUTHERN FOOTHILLS...

CITY           SKY/WX    TMP DP  RH WIND       PRES   REMARKS
COLO. SPRINGS  FAIR      47  21  35 S13       29.80F
A. F. ACADEMY  FAIR      46  14  27 S9        29.80S
SCHRIEVER AFB  NOT AVBL
ELLICOTT       FAIR     N/A N/A N/A MISG      29.80F
FALCON         FAIR      45  15  29 S13G20    29.82F
FORT CARSON    NOT AVBL
LIMON          FAIR      43  24  47 S8        29.78F
MONUMENT HILL  FAIR      43  16  33 S6        29.82S
TRINIDAD       FAIR      36  24  62 W7        29.83F
$$

COZ042>045-048>051-090-091-190000-
...NORTHEAST COLORADO...

CITY           SKY/WX    TMP DP  RH WIND       PRES   REMARKS
GREELEY ARPT   FAIR      49  28  44 SE3       29.78S
AKRON          FAIR      45  23  42 SW5       29.78S
BURLINGTON     FAIR      42  33  70 S12       29.78F
WRAY           NOT AVBL
STERLING       FAIR      45  32  61 SW7       29.76S
HOLYOKE        FAIR      45  30  57 S7        29.78F
FORT MORGAN    FAIR      46  25  43 SW5       29.77F
$$

COZ086-089-092>099-190000-
...SOUTHEAST COLORADO...

CITY           SKY/WX    TMP DP  RH WIND       PRES   REMARKS
PUEBLO         FAIR      46  32  58 E8        29.79F
LA JUNTA       FAIR      37  28  70 CALM      29.81F
LAMAR          FAIR      38  31  76 CALM      29.81F
SPRINGFIELD      N/A     49  35  58 S15       29.79F
$$




USA.gov is the U.S. government's official web portal to all federal, state and local government web resources and services.